When you browse on this site, cookies collect data to enhance your experience and personalize the content and advertising you see.
Visit our Privacy Policy to learn more. By continuing to use the site, you agree to this use of cookies and data.
  • In Österreich
  • Länderverzeichnis
  • Für 7 Tage
  • Wassertemperatur
  • Satellitenkarten
  • Wetterkarte
  • News
  • Widgets
  • user-avatar
    Anmelden

    Stündliche Wetter Rohachiv

    Heute, 20 Mai, Montag

    Zeit Temperatur Niederschläge Wind Luftdruck Luftfeuchtigkeit
    00:00 +18°C° 0 mm 4 m/S 740 mmHg 88%
    01:00 +17°C° 0 mm 5 m/S 740 mmHg 87%
    02:00 +17°C° 0 mm 4 m/S 740 mmHg 84%
    03:00 +16°C° 0.3 mm 5 m/S 740 mmHg 85%
    04:00 +16°C° 0.3 mm 5 m/S 740 mmHg 86%
    05:00 +16°C° 0.3 mm 5 m/S 740 mmHg 88%
    06:00 +17°C° 0.2 mm 5 m/S 740 mmHg 86%
    07:00 +17°C° 0.2 mm 5 m/S 740 mmHg 85%
    08:00 +20°C° 0 mm 6 m/S 741 mmHg 84%
    09:00 +21°C° 0.9 mm 6 m/S 741 mmHg 81%
    10:00 +22°C° 0.9 mm 7 m/S 740 mmHg 79%
    11:00 +23°C° 0.9 mm 7 m/S 740 mmHg 76%
    12:00 +23°C° 1.7 mm 7 m/S 740 mmHg 77%
    13:00 +23°C° 1.7 mm 7 m/S 740 mmHg 78%
    14:00 +25°C° 0 mm 5 m/S 740 mmHg 80%
    15:00 +23°C° 0.7 mm 5 m/S 740 mmHg 80%
    16:00 +23°C° 0.7 mm 6 m/S 740 mmHg 81%
    17:00 +23°C° 0.7 mm 6 m/S 740 mmHg 81%
    18:00 +21°C° 0.4 mm 6 m/S 739 mmHg 83%
    19:00 +20°C° 0.4 mm 6 m/S 739 mmHg 85%
    20:00 +19°C° 0.4 mm 6 m/S 739 mmHg 87%
    21:00 +19°C° 0.3 mm 5 m/S 739 mmHg 89%
    22:00 +17°C° 0.3 mm 5 m/S 739 mmHg 90%
    23:00 +18°C° 0.3 mm 4 m/S 739 mmHg 92%

    Morgen, 21 Mai, Dienstag

    Zeit Temperatur Niederschläge Wind Luftdruck Luftfeuchtigkeit
    00:00 +18°C° 0.6 mm 4 m/S 739 mmHg 92%
    01:00 +18°C° 0.6 mm 4 m/S 739 mmHg 93%
    02:00 +16°C° 0.6 mm 5 m/S 739 mmHg 93%
    03:00 +16°C° 0.6 mm 5 m/S 739 mmHg 94%
    04:00 +16°C° 0.6 mm 5 m/S 739 mmHg 94%
    05:00 +16°C° 0.6 mm 5 m/S 738 mmHg 95%
    06:00 +17°C° 0 mm 6 m/S 738 mmHg 91%
    07:00 +17°C° 0 mm 7 m/S 738 mmHg 88%
    08:00 +18°C° 0 mm 7 m/S 738 mmHg 84%
    09:00 +18°C° 0.1 mm 7 m/S 738 mmHg 84%
    10:00 +18°C° 0.1 mm 7 m/S 738 mmHg 84%
    11:00 +19°C° 0.1 mm 6 m/S 738 mmHg 84%
    12:00 +19°C° 0.5 mm 6 m/S 738 mmHg 82%
    13:00 +20°C° 0.5 mm 6 m/S 738 mmHg 80%
    14:00 +21°C° 0.5 mm 6 m/S 738 mmHg 78%
    15:00 +20°C° 0.9 mm 5 m/S 738 mmHg 79%
    16:00 +20°C° 0.9 mm 5 m/S 737 mmHg 80%
    17:00 +20°C° 0.9 mm 4 m/S 737 mmHg 81%
    18:00 +19°C° 0.1 mm 3 m/S 737 mmHg 84%
    19:00 +18°C° 0.1 mm 3 m/S 737 mmHg 87%
    20:00 +16°C° 0.1 mm 2 m/S 737 mmHg 91%
    21:00 +15°C° 0 mm 2 m/S 737 mmHg 92%
    22:00 +15°C° 0 mm 2 m/S 737 mmHg 93%
    23:00 +14°C° 0 mm 2 m/S 738 mmHg 94%

    übermorgen, 22 Mai, Mittwoch

    Zeit Temperatur Niederschläge Wind Luftdruck Luftfeuchtigkeit
    00:00 +13°C° 0 mm 2 m/S 738 mmHg 94%
    01:00 +13°C° 0 mm 2 m/S 738 mmHg 94%
    02:00 +12°C° 0 mm 2 m/S 738 mmHg 93%
    03:00 +12°C° 0 mm 2 m/S 738 mmHg 92%
    04:00 +12°C° 0 mm 2 m/S 738 mmHg 91%
    05:00 +10°C° 0 mm 2 m/S 738 mmHg 90%
    06:00 +13°C° 0 mm 2 m/S 738 mmHg 86%
    07:00 +14°C° 0 mm 3 m/S 738 mmHg 82%
    08:00 +16°C° 0 mm 3 m/S 739 mmHg 79%
    09:00 +18°C° 0 mm 3 m/S 739 mmHg 74%
    10:00 +19°C° 0 mm 3 m/S 739 mmHg 69%
    11:00 +21°C° 0 mm 3 m/S 739 mmHg 65%
    12:00 +21°C° 0.4 mm 4 m/S 739 mmHg 66%
    13:00 +21°C° 0.4 mm 4 m/S 739 mmHg 67%
    14:00 +21°C° 0.4 mm 4 m/S 738 mmHg 68%
    15:00 +21°C° 0.6 mm 3 m/S 738 mmHg 70%
    16:00 +21°C° 0.6 mm 3 m/S 738 mmHg 72%
    17:00 +20°C° 0.6 mm 3 m/S 738 mmHg 74%
    18:00 +19°C° 0.3 mm 2 m/S 738 mmHg 78%
    19:00 +17°C° 0.3 mm 2 m/S 738 mmHg 83%
    20:00 +16°C° 0.3 mm 2 m/S 738 mmHg 87%
    21:00 +15°C° 0 mm 2 m/S 738 mmHg 89%
    22:00 +15°C° 0 mm 2 m/S 738 mmHg 90%
    23:00 +14°C° 0 mm 2 m/S 738 mmHg 91%

    23 Mai, Donnerstag

    Zeit Temperatur Niederschläge Wind Luftdruck Luftfeuchtigkeit
    00:00 +13°C° 0 mm 2 m/S 738 mmHg 92%
    01:00 +13°C° 0 mm 2 m/S 738 mmHg 92%
    02:00 +13°C° 0 mm 2 m/S 738 mmHg 92%
    03:00 +12°C° 0 mm 2 m/S 738 mmHg 92%
    04:00 +12°C° 0 mm 1 m/S 738 mmHg 93%
    05:00 +12°C° 0 mm 1 m/S 738 mmHg 93%
    06:00 +14°C° 0 mm 1 m/S 738 mmHg 89%
    07:00 +16°C° 0 mm 1 m/S 738 mmHg 85%
    08:00 +18°C° 0 mm 1 m/S 738 mmHg 80%
    09:00 +18°C° 1.3 mm 2 m/S 738 mmHg 78%
    10:00 +19°C° 1.3 mm 2 m/S 738 mmHg 75%
    11:00 +20°C° 1.3 mm 3 m/S 738 mmHg 72%
    12:00 +21°C° 0.7 mm 3 m/S 738 mmHg 71%
    13:00 +21°C° 0.7 mm 3 m/S 738 mmHg 70%
    14:00 +22°C° 0.7 mm 3 m/S 738 mmHg 69%
    15:00 +21°C° 0.5 mm 3 m/S 738 mmHg 70%
    16:00 +21°C° 0.5 mm 2 m/S 737 mmHg 72%
    17:00 +21°C° 0.5 mm 2 m/S 737 mmHg 74%
    18:00 +19°C° 0.3 mm 2 m/S 737 mmHg 79%
    19:00 +18°C° 0.3 mm 2 m/S 737 mmHg 84%
    20:00 +16°C° 0.3 mm 1 m/S 737 mmHg 89%
    21:00 +15°C° 0 mm 2 m/S 737 mmHg 91%
    22:00 +15°C° 0 mm 2 m/S 737 mmHg 93%
    23:00 +14°C° 0 mm 2 m/S 737 mmHg 95%

    24 Mai, Freitag

    Zeit Temperatur Niederschläge Wind Luftdruck Luftfeuchtigkeit
    00:00 +14°C° 0 mm 2 m/S 737 mmHg 96%
    01:00 +13°C° 0 mm 2 m/S 737 mmHg 97%
    02:00 +13°C° 0 mm 2 m/S 737 mmHg 97%
    03:00 +13°C° 0 mm 2 m/S 737 mmHg 97%
    04:00 +13°C° 0 mm 2 m/S 737 mmHg 98%
    05:00 +13°C° 0 mm 2 m/S 737 mmHg 98%
    06:00 +14°C° 0.1 mm 2 m/S 737 mmHg 95%
    07:00 +14°C° 0.1 mm 3 m/S 737 mmHg 93%
    08:00 +16°C° 0.1 mm 3 m/S 737 mmHg 91%
    09:00 +17°C° 0.1 mm 3 m/S 738 mmHg 90%
    10:00 +17°C° 0.1 mm 4 m/S 738 mmHg 88%
    11:00 +18°C° 0.1 mm 4 m/S 738 mmHg 86%
    12:00 +17°C° 0.1 mm 5 m/S 738 mmHg 86%
    13:00 +16°C° 0.1 mm 5 m/S 738 mmHg 86%
    14:00 +16°C° 0.1 mm 5 m/S 737 mmHg 85%
    15:00 +16°C° 0.1 mm 5 m/S 737 mmHg 86%
    16:00 +17°C° 0.1 mm 4 m/S 737 mmHg 87%
    17:00 +15°C° 0.1 mm 4 m/S 737 mmHg 88%
    18:00 +15°C° 0 mm 4 m/S 737 mmHg 90%
    19:00 +14°C° 0 mm 3 m/S 737 mmHg 91%
    20:00 +14°C° 0 mm 3 m/S 737 mmHg 93%
    21:00 +14°C° 0 mm 3 m/S 737 mmHg 94%
    22:00 +13°C° 0 mm 3 m/S 737 mmHg 94%
    23:00 +13°C° 0 mm 3 m/S 737 mmHg 95%

    25 Mai, Samstag

    Zeit Temperatur Niederschläge Wind Luftdruck Luftfeuchtigkeit
    00:00 +13°C° 0 mm 3 m/S 737 mmHg 96%
    01:00 +12°C° 0 mm 3 m/S 737 mmHg 97%
    02:00 +12°C° 0 mm 3 m/S 737 mmHg 98%
    03:00 +13°C° 0 mm 2 m/S 737 mmHg 97%
    04:00 +13°C° 0 mm 2 m/S 737 mmHg 97%
    05:00 +13°C° 0 mm 2 m/S 737 mmHg 97%
    06:00 +13°C° 0 mm 3 m/S 737 mmHg 94%
    07:00 +14°C° 0 mm 3 m/S 737 mmHg 91%
    08:00 +16°C° 0 mm 3 m/S 737 mmHg 88%
    09:00 +17°C° 0.2 mm 3 m/S 737 mmHg 85%
    10:00 +17°C° 0.2 mm 4 m/S 738 mmHg 82%
    11:00 +18°C° 0.2 mm 4 m/S 738 mmHg 78%
    12:00 +19°C° 0.2 mm 4 m/S 737 mmHg 75%
    13:00 +19°C° 0.2 mm 4 m/S 737 mmHg 71%
    14:00 +20°C° 0.2 mm 5 m/S 737 mmHg 68%
    15:00 +20°C° 0 mm 4 m/S 737 mmHg 67%
    16:00 +20°C° 0 mm 4 m/S 737 mmHg 67%
    17:00 +20°C° 0 mm 4 m/S 737 mmHg 66%
    18:00 +19°C° 0 mm 3 m/S 737 mmHg 70%
    19:00 +17°C° 0 mm 3 m/S 737 mmHg 75%
    20:00 +14°C° 0 mm 3 m/S 737 mmHg 79%
    21:00 +14°C° 0 mm 2 m/S 737 mmHg 80%
    22:00 +13°C° 0 mm 2 m/S 737 mmHg 80%
    23:00 +12°C° 0 mm 2 m/S 738 mmHg 81%
    Mehr zeigen